TimeEDT,TemperatureF,Dew PointF,Humidity,Sea Level PressureIn,VisibilityMPH,Wind Direction,Wind SpeedMPH,Gust SpeedMPH,PrecipitationIn,Events,Conditions,WindDirDegrees,DateUTC
12:51 AM,52.0,46.0,80,30.32,10.0,SSW,4.6,-,N/A,,Clear,200,2013-05-19 04:51:00
1:51 AM,50.0,45.0,83,30.31,10.0,SSW,5.8,-,N/A,,Clear,210,2013-05-19 05:51:00
2:51 AM,48.9,45.0,86,30.31,10.0,Calm,Calm,-,N/A,,Clear,0,2013-05-19 06:51:00
3:51 AM,48.2,46.4,93,30.31,10.0,Calm,Calm,-,N/A,,Clear,0,2013-05-19 07:51:00
4:51 AM,48.0,45.0,89,30.32,10.0,WSW,4.6,-,N/A,,Clear,240,2013-05-19 08:51:00
5:51 AM,48.0,45.0,89,30.34,10.0,Calm,Calm,-,N/A,,Scattered Clouds,0,2013-05-19 09:51:00
6:51 AM,53.1,46.9,80,30.35,10.0,Calm,Calm,-,N/A,,Scattered Clouds,0,2013-05-19 10:51:00
7:51 AM,57.0,46.9,69,30.35,10.0,SW,3.5,-,N/A,,Scattered Clouds,230,2013-05-19 11:51:00
8:51 AM,62.1,48.9,62,30.36,10.0,SSE,3.5,-,N/A,,Scattered Clouds,160,2013-05-19 12:51:00
9:51 AM,64.9,48.0,54,30.36,10.0,South,8.1,-,N/A,,Scattered Clouds,180,2013-05-19 13:51:00
10:51 AM,66.0,48.9,54,30.35,10.0,SSE,11.5,18.4,N/A,,Scattered Clouds,150,2013-05-19 14:51:00
11:51 AM,66.9,48.0,51,30.35,10.0,SW,9.2,-,N/A,,Mostly Cloudy,230,2013-05-19 15:51:00
12:51 PM,68.0,50.0,52,30.34,10.0,SSE,16.1,-,N/A,,Mostly Cloudy,150,2013-05-19 16:51:00
1:51 PM,69.1,50.0,51,30.32,10.0,SSE,11.5,-,N/A,,Mostly Cloudy,160,2013-05-19 17:51:00
2:51 PM,66.0,48.0,52,30.31,10.0,South,12.7,-,N/A,,Mostly Cloudy,180,2013-05-19 18:51:00
3:51 PM,63.0,48.0,58,30.32,10.0,South,11.5,-,0.00,Rain,Light Rain,190,2013-05-19 19:51:00
4:51 PM,59.0,52.0,78,30.32,10.0,SSW,9.2,-,0.00,Rain,Light Rain,200,2013-05-19 20:51:00
5:51 PM,57.0,53.1,87,30.31,10.0,SSW,8.1,-,0.02,Rain,Light Rain,200,2013-05-19 21:51:00
6:20 PM,57.2,53.6,88,30.30,7.0,South,8.1,-,0.01,Rain,Light Rain,180,2013-05-19 22:20:00
6:31 PM,55.4,53.6,94,30.31,8.0,South,8.1,-,0.02,Rain,Light Rain,180,2013-05-19 22:31:00
6:51 PM,55.9,54.0,93,30.30,6.0,South,9.2,-,0.03,Rain,Light Rain,180,2013-05-19 22:51:00
7:13 PM,55.4,53.6,94,30.29,8.0,South,8.1,-,0.01,Rain,Light Rain,180,2013-05-19 23:13:00
7:19 PM,55.4,53.6,94,30.30,6.0,South,4.6,-,0.01,Rain,Light Rain,180,2013-05-19 23:19:00
7:51 PM,55.9,54.0,93,30.30,3.0,South,9.2,-,0.03,Rain,Light Rain,170,2013-05-19 23:51:00
8:43 PM,55.4,53.6,94,30.29,2.5,South,10.4,-,0.03,Rain,Light Rain,170,2013-05-20 00:43:00
8:51 PM,55.9,54.0,93,30.29,2.5,South,8.1,-,0.03,Rain,Light Rain,170,2013-05-20 00:51:00
9:15 PM,55.4,53.6,94,30.29,3.0,South,10.4,-,0.00,Rain,Light Rain,170,2013-05-20 01:15:00
9:51 PM,55.9,54.0,93,30.28,2.5,SSE,6.9,-,0.00,Rain,Light Rain,160,2013-05-20 01:51:00
10:34 PM,55.4,53.6,94,30.27,2.0,South,5.8,-,0.02,Rain,Light Rain,170,2013-05-20 02:34:00
10:51 PM,55.9,55.0,97,30.26,2.0,South,8.1,-,0.03,Rain,Light Rain,170,2013-05-20 02:51:00
10:58 PM,55.4,55.4,100,30.25,3.0,South,8.1,-,0.00,Rain,Light Rain,170,2013-05-20 02:58:00
11:51 PM,57.0,55.0,93,30.24,4.0,South,10.4,18.4,0.01,Rain,Light Rain,170,2013-05-20 03:51:00